Tracking 19279 objects as of 14-Nov-2018
HD Live streaming from Space Station
objects crossing your sky now

GB 2

Track GB 2 now!
10-day predictions
GB 2 is classified as:


NORAD ID: 14144
Int'l Code: 1983-056D
Perigee: 430.3 km
Apogee: 1,741.1 km
Inclination: 63.3 °
Period: 106.8 minutes
Semi major axis: 7456 km
RCS: Unknown
Launch date: June 9, 1983
Source: United States (US)
Launch site: AIR FORCE WESTERN TEST RANGE (AFWTR)
aabbcc
Your satellite tracking list
Your tracking list is empty




NASA's NSSDC Master Catalog

Two Line Element Set (TLE):
1 14144U 83056D   18296.74767639 0.00000200  00000-0  23923-4 0    09
2 14144  63.3030 242.0050 0878916 104.3533 255.6467 13.48295117    08
Source of the keplerian elements: McCants